Tracking 22780 objects as of 11-Apr-2021
HD Live streaming from Space Station
objects crossing your sky now

TITAN 3C TRANSTAGE DEB

Track TITAN 3C TRANSTAGE DEB now!


NORAD ID: 43513
Int'l Code: 1969-013R
Perigee: 36,981.4 km
Apogee: 37,537.4 km
Inclination: 4.4 °
Period: 1,511.6 minutes
Semi major axis: 43630 km
RCS: Unknown
Launch date: February 9, 1969
Source: United States (US)
Launch site: AIR FORCE EASTERN TEST RANGE (AFETR)

Note: This is SATELLITE DEBRIS
aabbcc
Your satellite tracking list
Your tracking list is empty




NASA's NSSDC Master Catalog

Two Line Element Set (TLE):
1 43513U 69013R   21098.74638906 -.00000156  00000-0  00000+0 0  9990
2 43513   4.3616 273.5879 0063722  88.7511 271.6278  0.95261943 10327
Source of the keplerian elements: AFSPC